Weather History for KALS - January, 2014

Change the Weather History Date:

Monday, January 6, 2014

  Actual Average Record
Temperature  
Mean Temperature 2 °F 16 °F  
Max Temperature 20 °F 34 °F 53 °F (1956)
Min Temperature -17 °F -2 °F -40 °F (1971)
Degree Days  
Heating Degree Days 63 49  
Month to date heating degree days 354 294  
Since 1 July heating degree days 4237 3931  
Cooling Degree Days 0 0  
Month to date cooling degree days 0 0  
Year to date cooling degree days 0 0  
Moisture  
Dew Point -10 °F    
Average Humidity 63    
Maximum Humidity 83    
Minimum Humidity 43    
Precipitation  
Precipitation 0.00 in 0.01 in 0.15 in (1997)
Month to date precipitation T 0.05  
Year to date precipitation T 0.05  
Snow  
Snow 0.00 in 0.10 in 2.10 in (1988)
Month to date snowfall T 0.7  
Since 1 July snowfall 25.6 11.0  
Snow Depth 2.00 in    
Sea Level Pressure  
Sea Level Pressure 30.67 in    
Wind  
Wind Speed 6 mph (WSW)    
Max Wind Speed 14 mph    
Max Gust Speed 15 mph    
Visibility 10 miles    
Events      
T = Trace of Precipitation, MM = Missing Value Source: NWS Daily Summary

Daily Weather History Graph

Daily Weather History Graph

Search for Another Location

Airport or City:

Trip Planner

Search our weather history database for the weather conditions in past years. The results will help you decide how hot, cold, wet, or windy it might be!

Date:

Astronomy

Jan. 06, 2014 Rise Set
Actual Time 7:18 AM MST 5:00 PM MST
Civil Twilight 6:49 AM MST 5:29 PM MST
Nautical Twilight 6:16 AM MST 6:02 PM MST
Astronomical Twilight 5:45 AM MST 6:33 PM MST
Moon 10:43 AM MST (1/6) 11:28 PM MST (1/6)
Length of Visible Light 10h 40m
Length of Day
9h 42m
Waxing Crescent, 35% of the Moon is Illuminated
Jan 6
Waxing Crescent
Jan 7
First Quarter
Jan 15
Full
Jan 23
Last Quarter
Jan 30
New

Hourly Weather History & Observations

Time (MST) Temp. Windchill Dew Point Humidity Pressure Visibility Wind Dir Wind Speed Gust Speed Precip Events Conditions
12:52 AM -7.1 °F -25.9 °F -14.1 °F 72% 30.52 in 10.0 mi SW 11.5 mph - N/A   Clear
1:52 AM -11.9 °F -27.3 °F -18.0 °F 74% 30.53 in 10.0 mi South 6.9 mph - N/A   Clear
2:52 AM -11.9 °F - -18.0 °F 74% 30.57 in 10.0 mi Calm Calm - N/A   Clear
3:52 AM -9.9 °F -23.4 °F -17.0 °F 71% 30.58 in 10.0 mi SW 5.8 mph - N/A   Clear
4:52 AM -16.1 °F -30.6 °F -22.0 °F 74% 30.63 in 10.0 mi SW 5.8 mph - N/A   Clear
5:52 AM -15.0 °F -33.7 °F -20.0 °F 78% 30.68 in 10.0 mi SW 9.2 mph - N/A   Clear
6:52 AM -13.0 °F -30.0 °F -18.9 °F 75% 30.68 in 10.0 mi WSW 8.1 mph - N/A   Clear
7:52 AM -11.0 °F -28.8 °F -18.0 °F 71% 30.70 in 10.0 mi SW 9.2 mph - N/A   Clear
8:52 AM -4.0 °F - -14.1 °F 62% 30.74 in 10.0 mi Calm Calm - N/A   Clear
9:52 AM -0.9 °F - -11.0 °F 62% 30.77 in 10.0 mi Calm Calm - N/A   Clear
10:52 AM 12.9 °F 6.9 °F -6.0 °F 43% 30.71 in 10.0 mi NW 3.5 mph - N/A   Clear
11:52 AM 14.0 °F 3.9 °F -0.9 °F 52% 30.66 in 10.0 mi West 6.9 mph - N/A   Clear
12:52 PM 16.0 °F 5.3 °F -0.9 °F 47% 30.61 in 10.0 mi West 8.1 mph - N/A   Clear
1:52 PM 19.0 °F 10.0 °F -0.9 °F 42% 30.61 in 10.0 mi West 6.9 mph - N/A   Clear
2:52 PM 19.9 °F 11.1 °F 1.0 °F 44% 30.61 in 10.0 mi WSW 6.9 mph - N/A   Clear
3:52 PM 16.0 °F 4.4 °F -0.0 °F 49% 30.63 in 10.0 mi West 9.2 mph - N/A   Clear
4:52 PM 10.9 °F -1.8 °F -2.0 °F 56% 30.68 in 10.0 mi West 9.2 mph - N/A   Clear
5:52 PM 6.1 °F -5.6 °F -6.0 °F 58% 30.73 in 10.0 mi NE 6.9 mph - N/A   Clear
6:52 PM -0.9 °F - -8.0 °F 72% 30.78 in 10.0 mi Calm Calm - N/A   Clear
7:52 PM -0.0 °F -7.9 °F -7.1 °F 72% 30.77 in 10.0 mi NE 3.5 mph - N/A   Clear
8:52 PM -6.0 °F -18.6 °F -11.9 °F 75% 30.77 in 10.0 mi WSW 5.8 mph - N/A   Clear
9:52 PM -7.1 °F -19.9 °F -11.9 °F 79% 30.78 in 10.0 mi West 5.8 mph - N/A   Clear
10:52 PM -5.1 °F -19.1 °F -9.9 °F 80% 30.67 in 10.0 mi NW 6.9 mph - N/A   Clear
11:52 PM -9.9 °F -21.5 °F -15.0 °F 78% 30.67 in 10.0 mi West 4.6 mph - N/A   Clear